User: anonymous   Login
Location: Unspecified
(0.0000°N, 0.0000°E)
Time: 01:07:21
(UTC+00:00)
Language:

STARLINK-11678 [DTC] - Orbit

View from above orbital plane
View from above orbital plane
View from above satellite
View from above satellite

Ground track
Ground track

The orbit is defined by the following mean orbital elements,

1 64326U          26145.44013105 +.00000000 +00000-0 +15352-2 0 00008
2 64326  43.0004 286.7277 0001869 260.3436  99.7220 15.70915366    03
Epoch (UTC): 25 May 2026 10:33:47
Eccentricity: 0.0001869
inclination: 43.0004°
perigee height: 355 km
apogee height: 358 km
right ascension of ascending node: 286.7277°
argument of perigee: 260.3436°
revolutions per day: 15.70915366
mean anomaly at epoch: 99.7220°

The dashed part of the orbit path shows where the satellite is in the earth's shadow,  

DLR